Weather History for Cross City, FL

Change the Weather History Date:

Wednesday, October 17, 2012

  Actual Average Record
Temperature  
Mean Temperature 68 °F 70 °F  
Max Temperature 78 °F 82 °F 88 °F (2007)
Min Temperature 58 °F 58 °F 42 °F (2001)
Degree Days  
Heating Degree Days 0 1  
Month to date heating degree days 0 7  
Since 1 July heating degree days 0 7  
Cooling Degree Days 3 6  
Month to date cooling degree days 187 136  
Year to date cooling degree days 2715 2478  
Growing Degree Days 18 (Base 50)    
Moisture  
Dew Point 60 °F    
Average Humidity 80    
Maximum Humidity 93    
Minimum Humidity 62    
Precipitation  
Precipitation 0.01 in 0.09 in 0.03 in (2004)
Month to date precipitation 3.35 2.15  
Year to date precipitation 57.12 41.98  
Sea Level Pressure  
Sea Level Pressure 29.88 in    
Wind  
Wind Speed 2 mph (NE)    
Max Wind Speed 10 mph    
Max Gust Speed 14 mph    
T = Trace of Precipitation, MM = Missing Value Source: NWS Daily Summary

Daily Weather History Graph

Daily Weather History Graph

Search for Another Location

Airport:

Trip Planner

Search our weather history database for the weather conditions in past years. The results will help you decide how hot, cold, wet, or windy it might be!

Date:

Astronomy

Oct. 17, 2012 Rise Set
Actual Time 7:35 AM EDT 6:59 PM EDT
Civil Twilight 7:11 AM EDT 7:23 PM EDT
Nautical Twilight 6:43 AM EDT 7:51 PM EDT
Astronomical Twilight 6:16 AM EDT 8:18 PM EDT
Moon 9:55 AM EDT 8:48 PM EDT
Length of Visible Light 12h 11m
Length of Day
11h 23m
Waxing Crescent, 7% of the Moon is Illuminated
Oct 17
Waxing Crescent
Oct 21
First Quarter
Oct 29
Full
Nov 6
Last Quarter
Nov 13
New

Hourly Weather History & Observations

Time (EDT) Temp. Dew Point Humidity Pressure Visibility Wind Dir Wind Speed Gust Speed Precip Events Conditions
12:53 AM 57.9 °F 55.0 °F 90% 29.88 in - Calm Calm - N/A   Unknown
1:53 AM 59.0 °F 55.9 °F 90% 29.88 in - Calm Calm - N/A   Unknown
2:53 AM 60.1 °F 57.0 °F 90% 29.87 in - Calm Calm - N/A   Unknown
3:53 AM 60.1 °F 57.0 °F 90% 29.87 in - Calm Calm - N/A   Unknown
4:53 AM 61.0 °F 57.0 °F 87% 29.86 in - Calm Calm - N/A   Unknown
5:53 AM 60.1 °F 57.0 °F 90% 29.89 in - Calm Calm - N/A   Unknown
6:53 AM 61.0 °F 57.0 °F 87% 29.89 in - Calm Calm - N/A   Unknown
7:53 AM 61.0 °F 57.0 °F 87% 29.92 in - Calm Calm - N/A   Unknown
8:53 AM 63.0 °F 57.0 °F 81% 29.93 in - NNE 3.5 mph - N/A   Unknown
9:53 AM 64.9 °F 57.0 °F 75% 29.94 in - NNE 6.9 mph - N/A   Unknown
10:53 AM 69.1 °F 57.9 °F 68% 29.94 in - Variable 3.5 mph - N/A   Unknown
11:53 AM 70.0 °F 59.0 °F 68% 29.93 in - NE 5.8 mph - N/A   Unknown
12:53 PM 72.0 °F 61.0 °F 68% 29.92 in - ENE 4.6 mph - N/A   Unknown
1:53 PM 73.0 °F 62.1 °F 68% 29.89 in - Variable 3.5 mph - N/A   Unknown
2:53 PM 75.0 °F 63.0 °F 66% 29.86 in - Variable 3.5 mph - N/A   Unknown
3:53 PM 77.0 °F 64.0 °F 64% 29.85 in - ENE 4.6 mph - N/A   Unknown
4:53 PM 78.1 °F 64.0 °F 62% 29.83 in - Variable 3.5 mph - N/A   Unknown
5:53 PM 78.1 °F 64.0 °F 62% 29.83 in - Calm Calm - N/A   Unknown
6:53 PM 73.0 °F 64.9 °F 76% 29.82 in - NNE 3.5 mph - N/A   Unknown
7:53 PM 68.0 °F 64.9 °F 90% 29.84 in - Calm Calm - 0.01 in   Unknown
8:53 PM 69.1 °F 64.9 °F 87% 29.86 in - Calm Calm - N/A   Unknown
9:53 PM 69.1 °F 64.9 °F 87% 29.88 in - Calm Calm - N/A   Unknown
10:53 PM 64.9 °F 63.0 °F 93% 29.88 in - Calm Calm - N/A   Unknown
11:53 PM 63.0 °F 61.0 °F 93% 29.88 in - Calm Calm - N/A   Unknown